Regional Weather Roundup
Issued by NWS

Home | Current Version | Previous Version | Text Only | Print | Product List | Glossary Off
Versions: 1 2 3 4 5 6 7 8 9 10 11 12 13 14 15 16 17 18 19 20 21 22 23 24 25 26 27 28 29 30 31 32 33 34 35 36 37 38 39 40 41 42 43 44 45 46 47 48 49 50

000
ASUS43 KLMK 240002
RWRKY
KENTUCKY REGIONAL WEATHER ROUNDUP
NATIONAL WEATHER SERVICE LOUISVILLE KY
800 PM EDT THU OCT 23 2014

NOTE "FAIR" INDICATES FEW OR NO CLOUDS BELOW 12,000 FEET
WITH NO SIGNIFICANT WEATHER AND/OR OBSTRUCTIONS TO VISIBILITY.

KYZ001>023-026-027-061>063-070>075-240100-
WESTERN AND SOUTH CENTRAL KENTUCKY

CITY           SKY/WX    TMP DP  RH WIND       PRES   REMARKS
PADUCAH        CLOUDY    52  46  80 W3        30.14S
HENDERSON      CLOUDY   N/A N/A N/A CALM      30.13S
OWENSBORO      CLOUDY    56  46  69 CALM      30.14R
HOPKINSVILLE   CLOUDY    52  44  74 N2        30.13S
BOWLING GREEN  CLOUDY    52  44  74 CALM      30.14S
GLASGOW        MOCLDY    49  45  83 N3        30.13F
$$

KYZ024-025-028>034-038-045-046-053-240100-
NORTH CENTRAL KENTUCKY

CITY           SKY/WX    TMP DP  RH WIND       PRES   REMARKS
LOUISVILLE/SDF MOCLDY    57  41  55 VRB5      30.14R
LOUISVILLE/LOU MOCLDY    54  44  69 CALM      30.15R
FORT KNOX      CLOUDY    54  42  65 NE6       30.13R
$$

KYZ035>037-039>044-047>052-055>060-089>105-240100-
NORTHEAST KENTUCKY

CITY           SKY/WX    TMP DP  RH WIND       PRES   REMARKS
LEXINGTON      PTCLDY    53  41  63 NE3       30.15R
COVINGTON      MOCLDY    50  40  68 CALM      30.14R
FRANKFORT      PTCLDY    49  42  77 CALM      30.14R
$$

KYZ054-064>069-076>088-106>120-240100-
SOUTHEAST KENTUCKY

CITY           SKY/WX    TMP DP  RH WIND       PRES   REMARKS
JACKSON        CLEAR     52  39  61 CALM      30.13S
LONDON         PTCLDY    52  42  69 CALM      30.13R
SOMERSET       PTCLDY    50  43  76 CALM      30.15R
MIDDLESBORO    PTCLDY    51  43  75 CALM      30.14R
MONTICELLO     MOCLDY    45  42  89 CALM      30.15R
$$




USA.gov is the U.S. government's official web portal to all federal, state and local government web resources and services.